GW5178 Weather Reports


time (UTC)temp
C
wind
direction
speed
KPH
gust
KPH
rain 1hr
cm
rain 24hr
cm
rain mn
cm
humidity
%
barometer
mb
20260503030937 13 279 0.0 4.8 0.00 0.00 0.00 24 1015.8
20260503030434 15 326 0.0 1.6 0.00 0.00 0.00 23 1015.6
20260503025931 15 264 3.2 6.4 0.00 0.00 0.00 23 1015.8
20260503025428 15 259 6.4 8.0 0.00 0.00 0.00 23 1016.0
20260503024926 15 253 6.4 8.0 0.00 0.00 0.00 23 1015.6
20260503024422 15 253 4.8 6.4 0.00 0.00 0.00 22 1015.4
20260503023919 16 273 4.8 4.8 0.00 0.00 0.00 21 1015.6
20260503023416 16 267 3.2 3.2 0.00 0.00 0.00 21 1015.8
20260503022913 16 274 3.2 4.8 0.00 0.00 0.00 21 1015.8
20260503022408 17 276 3.2 3.2 0.00 0.00 0.00 20 1015.8
20260503021904 17 271 4.8 4.8 0.00 0.00 0.00 19 1015.6
20260503021400 18 217 0.0 1.6 0.00 0.00 0.00 19 1015.4
20260503020857 18 232 1.6 3.2 0.00 0.00 0.00 17 1015.2
20260503020355 19 238 3.2 4.8 0.00 0.00 0.00 17 1015.6
20260503015851 20 239 3.2 4.8 0.00 0.00 0.00 17 1015.6
20260503015348 20 232 4.8 6.4 0.00 0.00 0.00 16 1015.8
20260503014844 20 227 3.2 6.4 0.00 0.00 0.00 16 1015.8
20260503014342 20 212 3.2 4.8 0.00 0.00 0.00 15 1015.4
20260503013839 20 220 3.2 6.4 0.00 0.00 0.00 15 1015.6
20260503013336 20 223 3.2 6.4 0.00 0.00 0.00 15 1015.5
20260503012833 21 213 4.8 6.4 0.00 0.00 0.00 15 1015.6
20260503012331 21 215 4.8 6.4 0.00 0.00 0.00 15 1015.4
20260503011828 21 200 4.8 6.4 0.00 0.00 0.00 15 1015.4
20260503011325 21 234 4.8 6.4 0.00 0.00 0.00 14 1015.8
20260503010821 21 196 6.4 6.4 0.00 0.00 0.00 15 1015.6
20260503010319 21 204 6.4 12.9 0.00 0.00 0.00 15 1015.8
20260503005815 21 230 4.8 6.4 0.00 0.00 0.00 15 1015.6
20260503005313 21 204 4.8 6.4 0.00 0.00 0.00 15 1015.8
20260503004809 21 191 4.8 9.7 0.00 0.00 0.00 15 1015.9
20260503004307 22 212 4.8 6.4 0.00 0.00 0.00 14 1015.6
20260503003804 22 246 3.2 9.7 0.00 0.00 0.00 14 1015.6
20260503003300 22 195 0.0 8.0 0.00 0.00 0.00 14 1015.9
20260503002757 22 205 4.8 8.0 0.00 0.00 0.00 14 1015.8
20260503002254 22 229 3.2 6.4 0.00 0.00 0.00 15 1015.8
20260503001750 22 232 8.0 12.9 0.00 0.00 0.00 14 1015.9
20260503001247 22 218 4.8 8.0 0.00 0.00 0.00 15 1015.8
20260503000745 22 222 8.0 9.7 0.00 0.00 0.00 14 1016.1
20260503000242 22 209 4.8 12.9 0.00 0.00 0.00 15 1015.8
20260502235739 22 226 1.6 8.0 0.00 0.00 0.00 15 1015.9
20260502235237 22 213 9.7 9.7 0.00 0.00 0.00 15 1015.9
20260502234732 22 271 6.4 11.3 0.00 0.00 0.00 15 1015.9
20260502234230 21 297 0.0 4.8 0.00 0.00 0.00 15 1016.0
20260502233726 22 247 12.9 17.7 0.00 0.00 0.00 15 1015.9
20260502233223 22 223 14.5 16.1 0.00 0.00 0.00 15 1015.8
20260502232718 22 235 3.2 4.8 0.00 0.00 0.00 15 1015.8
20260502232216 22 227 6.4 11.3 0.00 0.00 0.00 15 1016.0
20260502231713 22 122 3.2 6.4 0.00 0.00 0.00 15 1016.2
20260502231210 22 307 8.0 11.3 0.00 0.00 0.00 15 1016.3
20260502230709 22 259 8.0 19.3 0.00 0.00 0.00 15 1016.2
20260502230207 22 295 8.0 14.5 0.00 0.00 0.00 15 1016.2
20260502225702 22 243 17.7 22.5 0.00 0.00 0.00 15 1016.2
20260502225200 23 225 4.8 8.0 0.00 0.00 0.00 14 1016.3
20260502224655 23 236 8.0 11.3 0.00 0.00 0.00 14 1016.5
20260502224152 22 40 8.0 11.3 0.00 0.00 0.00 14 1016.5
20260502223650 23 300 4.8 22.5 0.00 0.00 0.00 14 1016.7
20260502223148 25 229 8.0 9.7 0.00 0.00 0.00 13 1016.3
20260502222646 23 218 6.4 19.3 0.00 0.00 0.00 14 1016.7
20260502222142 22 224 8.0 11.3 0.00 0.00 0.00 14 1016.6
20260502221637 22 126 8.0 12.9 0.00 0.00 0.00 14 1016.9
20260502221135 23 198 9.7 11.3 0.00 0.00 0.00 14 1016.7
20260502220631 24 277 3.2 6.4 0.00 0.00 0.00 14 1016.9
20260502220127 24 230 8.0 9.7 0.00 0.00 0.00 14 1017.0
20260502215625 23 198 8.0 11.3 0.00 0.00 0.00 14 1017.0
20260502215122 24 216 8.0 11.3 0.00 0.00 0.00 14 1016.9
20260502214619 23 194 8.0 20.9 0.00 0.00 0.00 14 1017.3
20260502214116 25 204 4.8 11.3 0.00 0.00 0.00 14 1017.5
20260502213613 22 223 3.2 9.7 0.00 0.00 0.00 16 1017.4
20260502213110 22 239 16.1 20.9 0.00 0.00 0.00 15 1017.5
20260502212609 23 228 12.9 20.9 0.00 0.00 0.00 15 1017.5
20260502212107 24 221 11.3 19.3 0.00 0.00 0.00 15 1017.3
20260502211602 22 328 1.6 9.7 0.00 0.00 0.00 15 1017.5
20260502211059 23 213 4.8 16.1 0.00 0.00 0.00 15 1017.6
20260502210556 23 191 3.2 9.7 0.00 0.00 0.00 15 1017.7
20260502210054 23 277 4.8 9.7 0.00 0.00 0.00 15 1017.7
20260502205550 23 212 4.8 12.9 0.00 0.00 0.00 15 1017.7
20260502205048 23 229 11.3 12.9 0.00 0.00 0.00 15 1017.7
20260502204544 22 239 12.9 12.9 0.00 0.00 0.00 15 1017.6
20260502204042 22 217 6.4 8.0 0.00 0.00 0.00 15 1018.2
20260502203538 22 228 6.4 9.7 0.00 0.00 0.00 16 1018.1
20260502203036 21 327 4.8 11.3 0.00 0.00 0.00 17 1018.1
20260502202531 22 236 14.5 17.7 0.00 0.00 0.00 16 1018.2
20260502202030 22 220 8.0 25.7 0.00 0.00 0.00 16 1018.3
20260502201526 23 207 6.4 20.9 0.00 0.00 0.00 16 1018.3
20260502201022 23 188 4.8 12.9 0.00 0.00 0.00 15 1018.1
20260502200518 23 186 8.0 8.0 0.00 0.00 0.00 16 1018.3
20260502200016 23 182 3.2 6.4 0.00 0.00 0.00 15 1018.6
20260502195514 23 210 6.4 8.0 0.00 0.00 0.00 16 1018.3
20260502195009 22 231 6.4 8.0 0.00 0.00 0.00 16 1018.4
20260502194506 22 199 12.9 19.3 0.00 0.00 0.00 16 1018.3
20260502194002 22 208 8.0 16.1 0.00 0.00 0.00 17 1018.3
20260502193500 22 205 4.8 11.3 0.00 0.00 0.00 16 1018.6
20260502192955 22 170 3.2 11.3 0.00 0.00 0.00 16 1018.8
20260502192452 22 197 4.8 19.3 0.00 0.00 0.00 17 1018.7
20260502191949 21 189 3.2 20.9 0.00 0.00 0.00 17 1018.9
20260502191447 21 238 20.9 25.7 0.00 0.00 0.00 17 1018.7
20260502190944 20 267 4.8 16.1 0.00 0.00 0.00 17 1018.8
20260502190441 21 221 3.2 22.5 0.00 0.00 0.00 17 1019.0
20260502185938 21 228 14.5 24.1 0.00 0.00 0.00 17 1018.9
20260502185433 21 182 3.2 12.9 0.00 0.00 0.00 17 1019.1
20260502184930 20 226 4.8 24.1 0.00 0.00 0.00 17 1019.1
20260502184426 20 247 11.3 27.4 0.00 0.00 0.00 18 1019.3
20260502183922 22 204 12.9 14.5 0.00 0.00 0.00 17 1019.1
20260502183419 21 205 4.8 6.4 0.00 0.00 0.00 18 1019.4
20260502182914 21 201 8.0 29.0 0.00 0.00 0.00 18 1019.3
20260502182410 21 213 11.3 19.3 0.00 0.00 0.00 19 1019.5
20260502181906 20 116 6.4 14.5 0.00 0.00 0.00 19 1019.5
20260502181405 21 195 6.4 14.5 0.00 0.00 0.00 19 1019.4
20260502180903 21 233 3.2 8.0 0.00 0.00 0.00 19 1019.6
20260502180400 20 128 4.8 8.0 0.00 0.00 0.00 20 1019.6
20260502170318 17 205 4.8 8.0 0.00 0.00 0.00 21 1020.7
20260502164306 16 204 3.2 4.8 0.00 0.00 0.00 21 1020.4
20260502163801 15 192 6.4 6.4 0.00 0.00 0.00 22 1020.7
20260502163258 15 222 6.4 8.0 0.00 0.00 0.00 21 1020.8
20260502162755 15 118 4.8 4.8 0.00 0.00 0.00 21 1021.0
20260502162252 15 87 4.8 9.7 0.00 0.00 0.00 22 1021.0
20260502161749 15 36 4.8 6.4 0.00 0.00 0.00 23 1020.8
20260502161245 13 196 4.8 8.0 0.00 0.00 0.00 23 1020.9
20260502160743 14 88 8.0 11.3 0.00 0.00 0.00 23 1020.9
20260502160242 13 66 6.4 8.0 0.00 0.00 0.00 24 1021.1
20260502152206 10 60 9.7 16.1 0.00 0.00 0.00 29 1020.9
20260502151704 10 73 6.4 14.5 0.00 0.00 0.00 29 1021.0
20260502151201 10 96 4.8 14.5 0.00 0.00 0.00 29 1021.1
20260502150658 8 56 8.0 17.7 0.00 0.00 0.00 30 1020.9
20260502150154 9 38 12.9 12.9 0.00 0.00 0.00 30 1021.1
20260502140118 6 73 9.7 14.5 0.00 0.00 0.00 36 1021.0
20260502130543 4 27 6.4 9.7 0.00 0.00 0.00 37 1020.5
20260502123526 3 135 0.0 4.8 0.00 0.00 0.00 38 1020.2
20260502123023 2 271 0.0 4.8 0.00 0.00 0.00 40 1020.4
20260502122519 2 139 0.0 4.8 0.00 0.00 0.00 42 1020.2
20260502122017 1 281 0.0 4.8 0.00 0.00 0.00 46 1020.3
20260502121514 0 151 3.2 6.4 0.00 0.00 0.00 48 1020.3
20260502121011 0 113 0.0 3.2 0.00 0.00 0.00 49 1020.3
20260502120507 0 71 0.0 4.8 0.00 0.00 0.00 47 1020.1
20260502115501 2 93 3.2 3.2 0.00 0.00 0.00 43 1020.1
20260502114958 2 36 0.0 3.2 0.00 0.00 0.00 42 1020.3
20260502114454 2 130 3.2 4.8 0.00 0.00 0.00 41 1020.2
20260502113951 2 92 1.6 3.2 0.00 0.00 0.00 41 1020.0
20260502113449 2 240 0.0 4.8 0.00 0.00 0.00 40 1020.0
20260502112948 3 105 0.0 3.2 0.00 0.00 0.00 39 1020.0
20260502112445 3 330 0.0 3.2 0.00 0.00 0.00 41 1020.0
20260502111942 2 304 0.0 3.2 0.00 0.00 0.00 42 1020.2
20260502111439 0 269 0.0 1.6 0.00 0.00 0.00 46 1020.2
20260502110936 0 147 0.0 3.2 0.00 0.00 0.00 46 1020.3
20260502110434 1 146 3.2 3.2 0.00 0.00 0.00 45 1020.4
20260502105931 0 156 0.0 3.2 0.00 0.00 0.00 46 1020.3
20260502105429 0 244 3.2 3.2 0.00 0.00 0.00 48 1020.2
20260502104927 0 3 1.6 1.6 0.00 0.00 0.00 49 1020.4
20260502104424 0 40 1.6 3.2 0.00 0.00 0.00 48 1020.5
20260502103921 0 48 0.0 1.6 0.00 0.00 0.00 48 1020.3
20260502103419 1 231 3.2 3.2 0.00 0.00 0.00 47 1020.4
20260502102915 1 156 1.6 3.2 0.00 0.00 0.00 46 1020.2
20260502102411 1 168 3.2 3.2 0.00 0.00 0.00 45 1020.1
20260502101909 1 154 3.2 4.8 0.00 0.00 0.00 45 1020.3
20260502101408 1 160 3.2 4.8 0.00 0.00 0.00 45 1020.1
20260502100906 2 119 4.8 4.8 0.00 0.00 0.00 43 1020.2
20260502100405 1 130 0.0 1.6 0.00 0.00 0.00 44 1020.0
20260502091338 1 258 1.6 3.2 0.00 0.00 0.00 44 1020.3
20260502090836 0 158 0.0 4.8 0.00 0.00 0.00 45 1020.3
20260502090332 1 253 3.2 4.8 0.00 0.00 0.00 43 1020.5
20260502071227 6 214 3.2 4.8 0.00 0.00 0.00 34 1020.5
20260502070725 6 326 0.0 1.6 0.00 0.00 0.00 34 1020.4
20260502070223 6 238 3.2 3.2 0.00 0.00 0.00 34 1020.5
20260502065721 6 359 1.6 1.6 0.00 0.00 0.00 34 1020.4
20260502065218 7 196 0.0 1.6 0.00 0.00 0.00 33 1020.4
20260502064717 7 31 0.0 1.6 0.00 0.00 0.00 33 1020.2
20260502064215 7 179 0.0 3.2 0.00 0.00 0.00 33 1020.4
20260502063712 7 310 0.0 3.2 0.00 0.00 0.00 31 1020.3
20260502063209 8 315 0.0 4.8 0.00 0.00 0.00 30 1020.2
20260502062706 9 236 1.6 3.2 0.00 0.00 0.00 29 1020.4
20260502062204 10 139 1.6 6.4 0.00 0.00 0.00 28 1020.4
20260502061702 10 108 4.8 6.4 0.00 0.00 0.00 27 1020.5
20260502061159 10 356 4.8 8.0 0.00 0.00 0.00 27 1020.4
20260502060654 10 331 1.6 3.2 0.00 0.00 0.00 27 1020.2
20260502060151 10 0 6.4 6.4 0.00 0.00 0.00 26 1020.1
20260502055648 11 253 4.8 4.8 0.00 0.00 0.00 26 1020.2
20260502055146 11 334 6.4 9.7 0.00 0.00 0.00 26 1020.4
20260502054645 11 234 0.0 6.4 0.00 0.00 0.00 26 1019.8
20260502054142 12 355 8.0 12.9 0.00 0.00 0.00 24 1020.2
20260502053639 11 2 6.4 12.9 0.00 0.00 0.00 25 1020.1
20260502053136 11 349 8.0 12.9 0.00 0.00 0.00 25 1019.8
20260502052635 12 261 1.6 12.9 0.00 0.00 0.00 23 1020.0
20260502052132 12 9 6.4 11.3 0.00 0.00 0.00 24 1020.2
20260502051630 13 353 11.3 12.9 0.00 0.00 0.00 23 1020.0
20260502051128 11 349 4.8 9.7 0.00 0.00 0.00 25 1020.1
20260502050624 12 315 9.7 11.3 0.00 0.00 0.00 24 1019.7
20260502050121 11 352 6.4 6.4 0.00 0.00 0.00 25 1019.8
20260502045617 11 326 1.6 6.4 0.00 0.00 0.00 25 1019.7
20260502045116 12 340 4.8 8.0 0.00 0.00 0.00 24 1019.6
20260502044612 10 276 4.8 8.0 0.00 0.00 0.00 28 1019.7
20260502044109 9 247 0.0 3.2 0.00 0.00 0.00 29 1019.7
20260502043607 7 307 3.2 4.8 0.00 0.00 0.00 31 1019.7
20260502043103 8 80 0.0 3.2 0.00 0.00 0.00 30 1019.6
20260502042602 8 199 3.2 3.2 0.00 0.00 0.00 30 1019.7
20260502042100 7 351 3.2 3.2 0.00 0.00 0.00 32 1019.7
20260502041558 8 30 0.0 1.6 0.00 0.00 0.00 30 1019.4
20260502041054 8 354 1.6 4.8 0.00 0.00 0.00 29 1019.5
20260502040551 8 102 0.0 4.8 0.00 0.00 0.00 30 1019.6
20260502040048 8 81 3.2 4.8 0.00 0.00 0.00 30 1019.7
20260502035544 9 32 0.0 4.8 0.00 0.00 0.00 29 1019.4
20260502035042 10 252 3.2 8.0 0.00 0.00 0.00 27 1019.5
20260502034540 8 357 1.6 3.2 0.00 0.00 0.00 31 1019.5
20260502034038 8 304 1.6 8.0 0.00 0.00 0.00 29 1019.4
20260502033536 8 269 6.4 8.0 0.00 0.00 0.00 29 1019.1
20260502033033 9 257 3.2 4.8 0.00 0.00 0.00 29 1019.1
20260502032528 9 357 3.2 4.8 0.00 0.00 0.00 28 1019.0
20260502032026 10 27 0.0 4.8 0.00 0.00 0.00 28 1019.0
20260502031523 10 320 1.6 3.2 0.00 0.00 0.00 27 1018.9